Location: Rowland
(34.5359°N, 79.2929°W)
Time: 19:18:38
(UTC+00:00)

Transit 2A Rocket - Pass Details

Date: 10 October 2022
Orbit: 589 x 911 km, 66.7° (Epoch: 03 December)

Event Time Altitude Azimuth Distance (km) Brightness Sun altitude
Rises 08:45:49 0° 206° (SSW) 2,853 - -32.1°
Reaches altitude 10° 08:48:05 10° 206° (SSW) 1,930 - -31.6°
Maximum altitude 08:52:23 88° 300° (WNW) 594 - -30.7°
Exits shadow 08:55:05 22° 26° (NNE) 1,305 6.5 -30.2°
Drops below altitude 10° 08:56:40 10° 26° (NNE) 1,925 7.5 -29.9°
Sets 08:58:55 0° 27° (NNE) 2,844 8.5 -29.4°
